{"data":{"norad_id":67847,"intl_designator":"2026-033AC","name":"STARLINK-36618","alt_names":[],"object_type":"PAYLOAD","status":"ACTIVE","operator":null,"country":"US","launch_date":"2026-02-16","launch_site_code":"AFETR","launch_vehicle":null,"mission":null,"orbit_class":"UNKNOWN","rcs_meters":null,"size_class":null,"mass_kg":null,"dimensions":null,"purposes":["comms"],"wikipedia_slug":null,"has_3d_model":false,"image_url":null,"decayed_at":null,"tle_current":{"epoch":"2026-05-24T13:50:09.787488Z","epoch_age_seconds":122172,"freshness":"FRESH","line1":"1 67847U 26033AC  26144.57650217  .00008125  00000+0  29677-3 0  9995","line2":"2 67847  43.0007 183.9749 0001616 273.4894  86.5773 15.28424285 16442","mean_motion":15.28424285,"eccentricity":0.0001616,"inclination_deg":43.0007,"raan_deg":183.9749,"arg_perigee_deg":273.4894,"mean_anomaly_deg":86.5773,"bstar":0.00029677,"rev_number":1644,"period_min":94.21467678394,"perigee_km":479.41380751244,"apogee_km":481.63052615516,"semimajor_km":6858.6591668338,"source":"CELESTRAK","updated_at":"2026-05-25T13:38:21.723816Z"}}}